Regional Weather Roundup
Issued by NWS

Home | Current Version | Previous Version | Graphics & Text | Print | Product List | Glossary On
Versions: 1 2 3 4 5 6 7 8 9 10 11 12 13 14 15 16 17 18 19 20 21 22 23 24 25 26 27
000
ASUS45 KCYS 280310
RWRWY

WYOMING REGIONAL WEATHER ROUNDUP
NATIONAL WEATHER SERVICE CHEYENNE WY
900 PM MDT FRI MAY 27 2016

NOTE:  "FAIR" INDICATES FEW OR NO CLOUDS BELOW 12,000 FEET
WITH NO SIGNIFICANT WEATHER AND/OR OBSTRUCTIONS TO VISIBILITY.

WYZ001-280400-
YELLOWSTONE NATIONAL PARK

CITY           SKY/WX    TMP DP  RH WIND       PRES   REMARKS
LK YELLOWSTONE   N/A     41  34  76 W12G17    30.04R
W YELLOWSTONE  NOT AVBL

$$
WYZ002>013-054>058-071-098>099-280400-
NORTHERN WYOMING

CITY           SKY/WX    TMP DP  RH WIND       PRES   REMARKS
JACKSON        NOT AVBL
CODY           MOCLDY    52  45  76 NW7       29.90R
GREYBULL       FAIR      62  40  44 NW18      29.82R
WORLAND        CLOUDY    62  42  47 N16G24    29.82R
SHERIDAN       MOCLDY    54  46  74 NW15      29.87R
BUFFALO        FAIR      52  41  66 W7        29.89R
GILLETTE       FAIR      48  42  80 S3        29.85F
HULETT         FAIR      52  43  71 E6        29.88R
NEWCASTLE      FAIR      52  41  66 SE7       29.88R

$$
WYZ014>020-022>026-101>103-280400-
CENTRAL WYOMING

CITY           SKY/WX    TMP DP  RH WIND       PRES   REMARKS
BIG PINEY      FAIR      45  37  73 N9        29.99R
PINEDALE       FAIR      43  34  70 NW3       30.00S
DUBOIS         FAIR      46  27  46 W10       29.95R
LANDER         MOCLDY    56  37  49 S6        29.87R
RIVERTON       CLOUDY    57  37  47 NW15      29.89R
CASPER         FAIR      52  41  66 NE10      29.91R
DOUGLAS          N/A    N/A N/A N/A MISG      29.91R

$$
WYZ021-027>030-104>119-280400-
SOUTHERN WYOMING

CITY           SKY/WX    TMP DP  RH WIND       PRES   REMARKS
EVANSTON       MOCLDY    48  34  58 W9        30.03R
KEMMERER         N/A     45  34  65 W6        30.02S
FORT BRIDGER   MOCLDY    50  37  62 W6        30.06R
ROCK SPRINGS   FAIR      50  34  54 W16       29.99R
DIXON          CLOUDY    48  40  72 E6        30.04R
RAWLINS        FAIR      47  36  65 SW8       30.00R
SARATOGA       CLOUDY    45  37  76 SW15G23   30.02R
LARAMIE        FAIR      42  37  82 SE5       29.99R
CHEYENNE       FAIR      46  41  82 SW8       29.97R
TORRINGTON     FAIR      54  46  74 CALM      29.89R
PINE BLUFFS    FAIR      48  43  81 SW3       29.94R

$$




USA.gov is the U.S. government's official web portal to all federal, state and local government web resources and services.